This demonstration page uses our WeatherBlox Daily Observations layout. Learn more.

Left ArrowRight Arrow

39.92423, -83.80882

Hourly Observations for January 8, 2017

Temp ( °F °C ) Dew Point ( °F °C ) Humidity (%) Winds ( mph kmh ) Pressure ( in mb ) Visibility ( mi km ) Precip ( " mm )
12:13 am 00:13 Mostly Cloudy with Light Snow 9 -13 5 -15 85 85 WSW 9 15 30.62 1037 6 9.65604 0.001 0.001
12:20 am 00:20 Partly Cloudy with Scattered Snow Showers 9 -13 5 -15 85 85 WSW 10 17 30.62 1037 9 14.48406 0.001 0.001
12:56 am 00:56 Clear with Light Snow 7 -13.9 4 -15.6 87 87 WSW 9 15 30.56 1035 9 14.48406 0.001 0.001
1:56 am 01:56 Mostly Cloudy 7 -13.9 5 -15 91 91 W 9 15 30.57 1035 10 16.0934 0.001 0.001
2:56 am 02:56 Clear 8 -13.3 4 -15.6 83 83 W 12 19 30.59 1036 10 16.0934 0 0
3:56 am 03:56 Clear 7 -13.9 2 -16.7 80 80 WNW 10 17 30.6 1036 10 16.0934 0 0
4:56 am 04:56 Clear 5 -15 1 -17.2 83 83 W 8 13 30.62 1037 10 16.0934 0 0
6:56 am 06:56 Partly Cloudy 4 -15.6 0 -17.8 83 83 W 10 17 30.67 1039 10 16.0934 0 0
7:56 am 07:56 Clear 3 -16.1 -1 -18.3 83 83 W 9 15 30.69 1039 10 16.0934 0 0
8:56 am 08:56 Sunny 8 -13.3 4 -15.6 83 83 W 9 15 30.7 1040 10 16.0934 0.001 0.001
9:09 am 09:09 Partly Cloudy with Scattered Snow Showers 10 -12 3 -16 72 72 W 10 17 30.74 1041 3 4.82802 0.001 0.001
9:56 am 09:56 Cloudy 11 -11.7 4 -15.6 73 73 W 9 15 30.73 1041 10 16.0934 0.001 0.001
10:56 am 10:56 Mostly Cloudy 15 -9.4 5 -15 64 64 W 12 19 30.75 1041 10 16.0934 0.001 0.001
11:56 am 11:56 Sunny 23 -5 8 -13.3 53 53 W 9 15 30.74 1041 10 16.0934 0 0
12:56 pm 12:56 Partly Cloudy 20 -6.7 5 -15 52 52 W 12 19 30.73 1041 10 16.0934 0 0
1:56 pm 13:56 Mostly Cloudy 23 -5 7 -13.9 50 50 WNW 9 15 30.71 1040 10 16.0934 0 0
2:56 pm 14:56 Mostly Sunny 24 -4.4 6 -14.4 46 46 WNW 7 11 30.7 1040 10 16.0934 0 0
3:56 pm 15:56 Mostly Sunny 20 -6.7 6 -14.4 55 55 W 6 9 30.7 1040 10 16.0934 0 0
4:56 pm 16:56 Sunny 19 -7.2 5 -15 54 54 W 6 9 30.71 1040 10 16.0934 0 0
5:56 pm 17:56 Clear 10 -12.2 0 -17.8 63 63 W 3 6 30.73 1041 10 16.0934 0 0
6:56 pm 18:56 Clear 9 -12.8 3 -16.1 77 77 Calm 30.73 1041 10 16.0934 0 0
7:56 pm 19:56 Clear 7 -13.9 3 -16.1 84 84 SE 5 7 30.73 1041 10 16.0934 0 0
8:56 pm 20:56 Clear 3 -16.1 0 -17.8 87 87 SE 5 7 30.73 1041 10 16.0934 0 0
9:56 pm 21:56 Clear 4 -15.6 1 -17.2 88 88 SE 6 9 30.71 1040 10 16.0934 0 0
10:56 pm 22:56 Clear 9 -12.8 3 -16.1 77 77 S 6 9 30.69 1039 10 16.0934 0 0
11:56 pm 23:56 Mostly Clear 10 -12.2 4 -15.6 76 76 S 5 7 30.66 1038 10 16.0934 0 0

Powered by AerisWeather